Vorticity
nan nan nan nan nan nan nan nan nan nan nan nan nan nan nan nan nan nan nan nan nan nan nan nan nan nan nan nan nan nan nan nan nan nan nan nan nan nan nan nan nan nan nan nan nan nan nan nan nan
nan 14 5 5 12 6 3 4 5 4 6 3 6 5 3 10 14 15 9 8 7 6 4 5 4 5 5 5 7 7 7 7 6 6 5 5 5 5 5 4 5 4 4 5 5 7 7 7 nan
nan 7 7 11 9 11 7 4 2 6 6 11 2 2 12 13 9 10 8 7 5 7 8 4 6 6 5 5 6 6 6 6 5 6 5 5 5 5 4 4 3 4 4 5 6 7 6 6 nan
nan 9 6 11 10 7 6 4 6 10 2 9 9 7 7 7 13 14 8 5 4 4 9 5 5 5 5 5 5 5 6 6 6 5 5 5 4 5 5 5 5 6 5 4 6 6 7 8 nan
nan 5 13 8 4 4 4 5 7 7 5 4 11 10 6 6 16 11 6 5 6 5 6 7 5 6 5 5 5 5 5 5 5 5 6 6 5 6 6 6 6 6 7 7 8 6 8 8 nan
nan 14 16 5 8 4 5 -0 7 7 9 8 4 4 6 12 9 6 6 4 7 6 5 5 4 6 6 5 5 5 5 5 5 5 5 6 6 5 5 5 6 6 7 7 5 7 8 8 nan
nan 6 3 9 5 5 6 5 7 5 7 8 1 6 12 10 6 8 6 6 5 6 6 6 5 5 5 5 5 5 5 5 5 5 5 4 5 5 4 4 5 6 7 8 6 7 6 9 nan
nan 8 4 5 6 6 5 10 2 5 12 4 9 10 14 9 5 7 5 6 8 4 6 9 6 5 5 5 6 6 5 5 5 5 5 4 4 6 6 9 9 4 5 8 9 8 7 9 nan
nan 2 9 4 5 7 9 4 6 6 7 3 10 15 20 9 4 5 3 2 5 9 6 6 6 7 6 6 7 4 6 5 4 5 7 4 7 11 8 7 8 5 5 6 7 9 8 7 nan
nan 9 2 9 6 6 4 5 11 9 3 10 7 12 10 8 5 4 4 7 5 2 3 7 7 6 5 5 8 7 6 5 5 5 6 2 8 5 6 11 4 3 5 6 9 9 8 5 nan
nan 13 4 4 2 5 9 10 1 12 15 10 7 8 5 4 6 5 6 7 7 3 4 7 10 8 2 8 6 8 6 7 8 10 5 4 7 9 6 4 6 9 7 6 10 6 9 6 nan
nan 2 3 3 6 4 5 6 9 4 11 11 18 10 6 5 6 6 7 7 7 10 8 6 5 6 3 7 7 6 6 7 8 10 4 9 7 5 5 6 8 9 5 10 11 4 9 9 nan
nan 3 5 2 3 4 8 5 7 12 8 13 14 10 5 6 6 7 7 7 8 8 7 9 6 3 7 5 6 5 7 9 9 6 7 6 5 6 6 5 6 7 7 10 9 8 7 8 nan
nan 3 4 5 9 5 3 10 13 12 8 13 10 8 7 6 7 7 7 7 7 8 9 7 6 6 6 4 6 7 8 6 4 6 12 8 7 7 3 6 7 5 8 6 9 10 7 9 nan
nan 7 8 10 2 10 10 22 9 5 10 12 9 8 9 6 7 6 7 6 7 8 8 6 7 7 6 8 8 6 7 5 9 11 8 7 7 5 7 6 5 6 6 8 8 9 4 8 nan
nan 5 11 13 7 9 9 15 11 7 10 9 8 10 8 7 6 8 7 7 7 5 8 6 7 8 7 6 5 8 10 5 7 9 9 12 7 5 7 5 8 9 5 5 6 9 9 7 nan
nan 13 13 -4 6 4 8 4 12 8 10 9 9 9 7 6 5 7 8 7 6 7 8 5 7 7 8 7 6 7 8 7 8 8 11 12 7 7 7 7 8 7 7 9 9 6 6 5 nan
nan 14 3 4 10 3 6 9 3 11 9 8 8 8 7 7 6 6 7 7 9 9 7 5 12 9 10 3 6 10 5 6 7 8 10 9 10 8 6 8 7 9 6 6 11 9 4 7 nan
nan 8 6 11 10 5 7 6 4 13 8 7 8 9 6 8 10 6 6 7 9 11 9 2 4 14 9 9 14 8 8 9 7 6 6 5 8 10 8 7 8 8 9 6 3 11 12 8 nan
nan 7 9 4 5 7 6 1 11 10 9 10 10 8 9 8 8 5 6 7 9 11 9 15 6 5 3 6 7 9 9 7 6 12 13 12 9 10 8 8 10 9 9 9 7 8 10 10 nan
nan 10 8 8 6 9 14 10 17 8 6 9 11 11 9 8 8 7 6 8 10 11 11 8 10 12 8 9 6 6 9 10 8 5 11 10 9 9 11 12 10 10 10 10 11 11 8 8 nan
nan 12 5 10 3 8 8 18 21 8 9 11 10 11 10 14 9 8 8 10 9 8 10 8 8 11 11 8 6 6 5 8 16 9 7 10 12 7 10 11 10 9 10 10 9 9 9 8 nan
nan 6 8 7 9 8 5 11 8 11 11 9 14 15 13 14 10 7 10 10 11 7 7 8 8 8 8 10 12 8 12 11 5 10 9 12 8 8 11 12 11 12 10 9 10 12 9 5 nan
nan 8 8 8 10 13 15 5 6 5 11 15 11 11 17 12 9 8 10 8 10 9 8 9 8 7 8 9 9 11 10 6 8 9 9 6 11 10 10 12 13 13 11 11 12 11 10 8 nan
nan 4 11 11 8 11 13 7 8 12 8 7 10 16 15 12 9 9 7 7 8 10 6 6 8 9 8 8 7 8 5 8 6 7 10 9 8 7 9 11 14 13 14 14 9 12 12 10 nan
nan 3 2 3 7 12 1 4 9 10 11 13 11 13 15 11 9 9 8 9 9 9 7 5 6 8 8 7 8 6 6 8 7 9 6 12 10 7 8 9 12 13 15 14 11 11 12 11 nan
nan 11 6 10 8 0 3 16 8 5 10 14 10 13 12 11 12 10 10 11 11 8 9 8 8 8 9 7 7 7 7 7 8 6 10 11 10 8 8 11 13 15 15 17 14 10 11 12 nan
nan 10 15 7 7 11 13 15 13 5 12 12 9 10 10 10 9 10 10 10 12 10 9 12 10 8 8 8 7 6 6 7 8 8 10 10 8 10 10 12 12 14 15 13 16 19 16 13 nan
nan 4 3 5 13 13 14 -1 3 19 16 7 14 12 10 10 10 9 10 11 12 11 10 10 9 9 8 7 8 7 7 9 7 8 8 9 8 9 11 11 11 11 11 13 15 13 13 17 nan
nan nan nan nan nan nan nan nan nan nan nan nan nan nan nan nan nan nan nan nan nan nan nan nan nan nan nan nan nan nan nan nan nan nan nan nan nan nan nan nan nan nan nan nan nan nan nan nan nan
CAPE
1156 1828 1385 1540 476 77 48 11 17 22 9 0 0 2 0 140 1187 607 577 861 1061 1123 1396 1558 3064 3072 2931 3221 3751 3676 3654 3203 2899 2994 2708 2679 2592 2267 2404 2221 2107 2046 1907 1903 1670 1500 1683 1603 1413
1324 1021 1471 1317 108 142 67 10 0 0 7 3 1 20 0 68 856 939 790 882 960 1124 1213 1630 2878 3174 2857 3050 3480 3899 3646 3228 3294 2987 2800 2784 2799 2596 2333 2278 2135 1987 1885 1810 1725 1596 1687 1519 1360
1530 993 939 308 196 202 126 13 0 0 0 14 12 4 320 410 672 803 928 865 1067 1189 1412 2132 2822 2776 2750 2883 3408 3717 3647 3381 3171 3048 2947 2859 2683 2516 2362 2297 2141 1871 1860 1887 1737 1745 1691 1641 1518
777 822 629 122 166 132 70 3 20 49 0 10 49 415 226 455 629 1099 1004 889 1069 1119 1723 2412 2929 2390 2488 2643 2861 2985 3124 3286 3094 2957 2729 2632 2579 2444 2341 2340 2167 1853 1881 1922 1838 2022 1750 1659 1576
574 574 140 119 126 129 74 70 124 15 5 0 88 424 522 777 1048 1118 1034 1055 1063 1114 2087 1780 3098 2954 2641 2604 2595 2706 2777 2800 2712 2635 2670 2728 2703 2555 2332 2257 1944 1761 1714 1337 1743 1768 1760 1582 1263
434 148 266 116 131 107 177 133 127 86 21 62 44 662 1106 1001 1301 1280 1169 1175 1042 1233 1729 1743 2976 2933 2620 2594 2717 2673 2610 2564 2631 2752 2867 2979 2902 2563 2466 2433 2137 2036 1792 1614 1428 1538 1581 1508 1060
338 110 189 80 65 21 123 263 185 107 95 103 95 545 1120 990 1464 1494 1394 1243 1089 1321 1707 1889 1949 2446 2487 2507 2650 2623 2523 2524 2610 2649 2600 2639 2746 2636 2453 2031 2188 2067 1795 1613 1556 1435 1428 1738 1326
433 217 142 97 61 18 27 83 124 256 347 291 337 507 1181 1410 1783 1782 1577 1804 1227 1276 1959 1971 2105 2093 2195 2361 2699 2605 2492 2332 2307 2273 2252 2380 2621 2365 2176 1727 2260 2055 1994 1570 1380 1542 1377 1712 1548
301 342 155 68 44 92 20 108 117 282 461 467 528 506 1234 1563 1673 1638 1655 1681 1952 1946 1957 2031 2001 2549 2450 3080 2782 2698 2510 2647 2654 2536 2436 2300 1792 2342 2191 2082 2243 1901 1966 1765 1510 1460 1439 1699 1749
140 205 24 0 0 1 12 1 63 337 590 659 913 1057 1438 1618 1635 1722 1685 1813 1714 1638 1887 1878 2234 2472 2606 2469 2721 2559 2237 2286 2324 2269 2453 2218 2442 2933 1810 2267 2222 1877 1831 1912 1872 1478 1344 1348 339
187 162 2 0 0 0 4 38 14 127 389 873 1028 1616 1511 1522 1532 1469 1500 1480 1626 1630 1961 2296 2420 2630 2685 2767 2681 2880 2430 2671 2267 2430 2627 2540 2502 2022 1090 1271 1884 1923 1661 1288 1624 1370 1185 1159 1172
84 0 0 0 0 0 0 0 16 45 472 517 893 1634 1698 1483 1517 1305 1300 1353 1565 1701 1901 1733 1561 2682 2786 4023 2355 2245 2114 3108 2255 2733 3458 3187 2473 2005 2184 1524 1640 2046 1811 1813 1699 1698 2435 1815 1582
24 0 0 0 0 0 0 0 0 24 291 556 943 1502 1704 1394 1281 1150 1090 1131 1464 1833 1856 1845 1946 2380 2649 2568 2128 2217 1831 2335 2118 2274 2120 2049 1647 1912 1563 958 1484 1426 2013 1678 1886 1822 1595 2448 1800
8 1 10 2 9 23 30 10 15 691 482 600 1215 1615 1615 1339 1352 1142 1179 1184 1502 1613 2049 2091 2368 2621 2695 2831 2566 2272 1770 2214 1942 1495 2323 2118 1790 1891 858 313 322 1050 1642 2183 987 1861 2051 2529 1509
0 24 51 5 8 14 9 57 131 725 734 1174 1428 1750 1619 1427 1507 1439 1401 1509 1445 1672 1877 2124 2629 2729 2781 2621 2451 2124 1585 1402 1438 1408 1807 1486 2011 2302 1608 512 239 16 896 2416 964 1843 2177 1913 1709
0 7 18 67 0 100 20 397 391 694 824 1576 1651 1778 1863 1751 1663 1656 1606 1754 1745 1924 2077 2359 2272 2572 2773 2873 2510 1753 1327 1399 1650 1549 2916 1981 1709 2873 2175 1364 1033 185 538 743 1271 1832 1335 2271 2410
0 0 5 1 2 6 8 109 638 801 1002 1864 1936 2084 2203 2266 2122 2116 1955 1926 1956 2112 2497 2629 2541 2319 2650 2944 2392 2291 1859 1633 2302 1846 1621 2682 2201 1834 2567 1920 1318 1373 1275 1483 1288 1315 1196 1253 1705
0 0 0 0 48 0 0 48 252 906 1172 1745 2187 2327 2529 2486 2369 2311 2259 1989 2119 2194 2552 2816 3272 3190 2725 2842 3303 2448 2049 2181 2114 2517 2158 2519 1958 2143 2813 1942 2166 2142 2215 1315 1392 1264 1324 964 1501
0 0 0 0 0 0 0 0 52 490 939 1391 1929 2542 2545 2328 2300 2290 2249 2100 2089 2446 2677 2925 858 979 742 1063 2472 2201 1704 2056 1755 1514 2476 2288 2128 2081 2598 3041 2755 2638 2811 2229 2436 2330 2001 857 1087
0 0 0 0 0 0 0 0 4 278 574 849 1546 2370 2541 2421 2257 1965 2040 2240 2260 2619 2649 2439 2012 2067 1051 1191 4045 2196 2413 2062 1741 2070 2153 2186 1736 1645 2035 2388 2184 2187 2133 2502 2463 1280 2290 1902 1037
0 0 0 0 10 0 0 60 34 150 358 733 1050 1512 2350 2240 2463 2043 1683 1719 1691 2207 2612 2912 2607 2518 2630 2787 3092 3218 2552 2693 2147 1508 993 1859 1255 1548 1214 1247 1790 2265 2484 2462 2405 1969 580 2154 1528
0 0 0 0 0 9 53 51 149 192 129 745 937 1154 1514 2190 2455 2168 1550 1982 1721 1779 2026 2260 2550 3091 2988 2743 2513 2811 2237 1100 986 1085 1304 1092 1069 1322 1163 1219 1317 1556 1606 1983 2273 2043 1325 1783 1414
0 0 0 0 0 19 2 39 139 138 23 342 450 880 1359 2012 2243 1890 1479 1764 1941 1543 1693 2067 2367 2518 2502 2430 2494 2328 1373 988 898 840 1148 1323 1320 1070 978 963 989 1283 2189 1802 1733 1618 1323 1106 559
0 0 0 7 15 47 65 79 84 198 223 171 565 799 1209 1753 2039 1821 1658 1119 1324 1184 1262 1507 2089 2323 2606 2347 1929 1520 1403 1298 1094 1055 766 551 529 820 1225 1184 1241 1374 1629 1741 1990 1943 1579 1390 908
0 9 130 251 244 175 158 75 69 70 55 198 287 753 1211 1608 1989 1910 1725 1418 1435 1389 1146 1540 2230 2667 2417 1964 1443 1414 1359 1200 1184 955 713 1098 611 910 1360 1626 1374 1507 1566 1467 1903 1731 1788 1449 1078
14 27 137 263 244 314 54 78 336 192 46 278 753 848 1227 1545 1739 1846 1845 1628 1219 1095 1151 1313 2303 2715 2261 1675 1479 1256 1013 723 644 1010 914 776 726 795 1243 1224 1476 1171 973 1023 1446 1657 1664 1633 1163
17 86 60 85 128 177 152 104 76 68 54 240 950 1154 1325 1608 1600 1656 1596 1987 1156 1143 1160 1031 2182 2677 2052 1586 1464 1232 1137 1101 1022 980 1044 726 1159 645 585 674 985 1313 1018 1216 1293 1842 1428 1517 1480
2 41 120 56 147 167 206 210 240 180 91 1161 1418 1326 1465 1586 1482 1439 1994 1889 1566 1202 1454 1738 2417 2279 1913 1447 1233 1189 1113 967 981 876 840 914 646 377 197 422 1098 1134 1338 1098 797 1760 1527 1345 1417
50 6 51 87 213 276 154 259 59 152 120 407 1313 1552 1924 1844 1542 1660 2026 1836 1605 1647 1877 2339 2309 2179 1543 1115 1109 1077 909 1020 929 618 722 710 315 223 223 479 616 746 934 977 1144 932 1235 1065 991
58 89 50 179 230 202 176 188 192 144 260 311 1073 1932 1988 1881 2138 2115 2049 1864 1681 1949 1903 2187 2210 1394 1247 1022 1043 1033 970 1153 698 620 564 538 332 222 182 411 651 403 316 228 385 452 542 426 648